Location: Banff
(51.1667°N, 115.5667°W)
Time: 20:35:55
(UTC+00:00)

Vanguard 1 Rocket - Pass Details

Date: 02 December 2020
Orbit: 655 x 4221 km, 34.3° (Epoch: 17 January)

Event Time Altitude Azimuth Distance (km) Brightness Sun altitude
Exits shadow 11:18:56 42° 216° (SW) 4,605 10.5 -37.7°
Maximum altitude 11:23:36 46° 190° (S) 4,153 10.4 -36.9°
Drops below altitude 10° 11:38:14 10° 124° (SE) 4,953 11.6 -34.7°
Sets 11:41:27 0° 118° (ESE) 5,564 12.1 -34.2°
